SR3WXA Weather Reports


Display with metric or nautical units.
time (UTC)temp
F
wind
direction
speed
MPH
gust
MPH
rain 1hr
in
rain 24hr
in
rain mn
in
humidity
%
barometer
mb
20200603210623 60 85 2.0 9.0 0.00 0.00 0.00 60 1004.2
20200603210550 60 85 2.0 9.0 0.00 0.00 0.00 60 1004.2
20200603210133 60 71 2.0 7.0 0.00 0.00 0.00 60 1003.5
20200603205550 60 79 1.0 9.0 0.00 0.00 0.00 59 1004.4
20200603204628 60 61 3.0 10.0 0.00 0.00 0.00 58 1003.7
20200603204626 61 72 3.0 10.0 0.00 0.00 0.00 58 1004.5
20200603204550 61 72 3.0 10.0 0.00 0.00 0.00 58 1004.5
20200603203550 61 63 3.0 12.0 0.00 0.00 0.00 57 1004.5
20200603201630 61 87 1.0 9.0 0.00 0.00 0.00 54 1003.8
20200603201550 62 101 1.0 9.0 0.00 0.00 0.00 54 1004.5
20200603200550 62 67 3.0 10.0 0.00 0.00 0.00 52 1004.6
20200603200226 62 44 3.0 10.0 0.00 0.00 0.00 50 1003.8
20200603195337 64 48 4.0 8.0 0.00 0.00 0.00 46 1004.6
20200603194837 65 52 1.0 4.0 0.00 0.00 0.00 42 1004.5
20200603194602 64 53 0.0 1.0 0.00 0.00 0.00 41 1003.7
20200603193407 65 0 0.0 0.0 0.00 0.00 0.00 41 1004.3
20200603193336 65 0 0.0 0.0 0.00 0.00 0.00 41 1004.3
20200603193229 65 53 0.0 0.0 0.00 0.00 0.00 40 1003.5
20200603192838 65 0 0.0 1.0 0.00 0.00 0.00 40 1004.3
20200603192337 65 0 0.0 1.0 0.00 0.00 0.00 40 1004.3
20200603191613 65 53 0.0 0.0 0.00 0.00 0.00 39 1003.5
20200603190837 66 0 0.0 0.0 0.00 0.00 0.00 39 1004.2
20200603190240 65 53 0.0 3.0 0.00 0.00 0.00 39 1003.5
20200603185837 66 0 0.0 4.0 0.00 0.00 0.00 39 1004.2
20200603185337 66 0 0.0 4.0 0.00 0.00 0.00 39 1004.2
20200603184938 66 52 2.0 4.0 0.00 0.00 0.00 39 1004.2
20200603184836 66 52 2.0 4.0 0.00 0.00 0.00 39 1004.2
20200603184605 66 53 1.0 4.0 0.00 0.00 0.00 39 1003.4
20200603184459 66 0 0.0 4.0 0.00 0.00 0.00 38 1004.1
20200603184337 66 0 0.0 4.0 0.00 0.00 0.00 38 1004.1
20200603183837 67 52 1.0 5.0 0.00 0.00 0.00 38 1004.1
20200603183604 67 52 2.0 5.0 0.00 0.00 0.00 38 1004.1
20200603183337 67 52 2.0 5.0 0.00 0.00 0.00 38 1004.1
20200603182827 67 66 3.0 6.0 0.00 0.00 0.00 38 1004.1
20200603181827 67 39 3.0 7.0 0.00 0.00 0.00 37 1004.0
20200603181325 67 69 1.0 7.0 0.00 0.00 0.00 37 1004.0
20200603180825 68 16 2.0 7.0 0.00 0.00 0.00 37 1004.0
20200603180327 68 62 1.0 7.0 0.00 0.00 0.00 37 1004.0
20200603180146 67 63 1.0 7.0 0.00 0.00 0.00 36 1003.3
20200603175913 68 75 2.0 7.0 0.00 0.01 0.00 36 1004.0
20200603175826 68 75 2.0 7.0 0.00 0.01 0.00 36 1004.0
20200603175326 67 61 2.0 9.0 0.00 0.01 0.00 36 1004.0
20200603174826 68 47 4.0 9.0 0.00 0.01 0.00 36 1004.0
20200603174545 67 47 3.0 9.0 0.00 0.02 0.00 36 1003.4
20200603174357 68 61 2.0 9.0 0.00 0.01 0.00 36 1004.1
20200603174325 68 61 2.0 9.0 0.00 0.01 0.00 36 1004.1
20200603173939 68 46 4.0 9.0 0.00 0.01 0.00 36 1004.0
20200603173825 68 46 4.0 9.0 0.00 0.01 0.00 36 1004.0
20200603173326 68 29 5.0 9.0 0.00 0.01 0.00 36 1004.0
20200603173159 68 13 2.0 8.0 0.00 0.02 0.00 36 1003.3
20200603170129 69 346 1.0 7.0 0.00 0.02 0.00 35 1003.5
20200603165825 69 0 0.0 9.0 0.00 0.03 0.00 35 1004.1
20200603164326 69 5 6.0 10.0 0.00 0.03 0.00 35 1004.2
20200603163138 69 336 3.0 10.0 0.00 0.05 0.00 35 1003.6
20200603162929 69 353 1.0 12.0 0.00 0.04 0.00 35 1004.3
20200603162430 70 17 6.0 12.0 0.00 0.04 0.00 34 1004.4
20200603161929 70 342 1.0 8.0 0.00 0.05 0.00 34 1004.4
20200603161430 70 336 3.0 8.0 0.00 0.05 0.00 34 1004.4
20200603160929 70 297 2.0 8.0 0.00 0.05 0.00 34 1004.5
20200603160428 70 318 1.0 8.0 0.00 0.05 0.00 34 1004.5
20200603160210 69 17 3.0 8.0 0.00 0.05 0.00 33 1003.8
20200603155930 70 346 3.0 11.0 0.00 0.05 0.00 33 1004.5
20200603155429 70 22 3.0 14.0 0.00 0.05 0.00 34 1004.5
20200603154928 69 342 2.0 14.0 0.00 0.05 0.00 35 1004.6
20200603154211 69 351 6.0 13.0 0.00 0.05 0.00 35 1004.6
20200603153711 69 34 4.0 13.0 0.00 0.05 0.00 33 1004.6
20200603153211 70 1 7.0 13.0 0.00 0.05 0.00 33 1004.6
20200603153154 70 10 5.0 13.0 0.00 0.05 0.00 33 1004.0
20200603152711 70 331 4.0 10.0 0.00 0.05 0.00 34 1004.8
20200603151733 70 322 3.0 11.0 0.00 0.05 0.00 34 1004.2
20200603151711 70 336 4.0 10.0 0.00 0.05 0.00 34 1004.9
20200603151211 70 329 2.0 9.0 0.00 0.05 0.00 34 1004.9
20200603150636 70 341 6.0 12.0 0.00 0.05 0.00 33 1004.9
20200603150144 69 285 2.0 9.0 0.00 0.05 0.00 34 1004.3
20200603150136 70 299 1.0 9.0 0.00 0.05 0.00 34 1005.0
20200603145636 69 30 1.0 12.0 0.00 0.05 0.00 34 1005.0
20200603145136 70 355 5.0 12.0 0.00 0.05 0.00 35 1005.1
20200603144640 70 343 3.0 9.0 0.00 0.05 0.00 36 1004.4
20200603144635 70 344 4.0 9.0 0.00 0.05 0.00 36 1005.1
20200603144136 70 344 3.0 10.0 0.00 0.05 0.00 35 1005.2
20200603143635 69 309 3.0 13.0 0.00 0.05 0.00 36 1005.2
20200603143218 69 326 2.0 13.0 0.00 0.05 0.00 36 1005.3
20200603143216 68 316 1.0 13.0 0.00 0.05 0.00 36 1004.5
20200603143136 69 326 2.0 13.0 0.00 0.05 0.00 36 1005.3
20200603142635 69 22 7.0 11.0 0.00 0.05 0.00 35 1005.4
20200603141703 69 351 6.0 13.0 0.00 0.05 0.00 36 1005.5
20200603140830 69 320 3.0 12.0 0.00 0.05 0.00 35 1005.5
20200603140421 69 339 3.0 10.0 0.00 0.05 0.00 35 1005.6
20200603140330 69 339 3.0 10.0 0.00 0.05 0.00 35 1005.6
20200603140200 69 16 1.0 8.0 0.00 0.05 0.00 34 1004.8
20200603135830 70 10 5.0 9.0 0.00 0.05 0.00 34 1005.6
20200603135330 70 333 1.0 9.0 0.00 0.05 0.00 34 1005.7
20200603134331 70 348 2.0 11.0 0.00 0.05 0.00 35 1005.8
20200603133830 70 333 1.0 10.0 0.00 0.05 0.00 36 1005.9
20200603133330 70 310 2.0 9.0 0.00 0.05 0.00 36 1005.9
20200603132830 69 280 1.0 9.0 0.00 0.05 0.00 36 1005.9
20200603131648 68 17 6.0 12.0 0.00 0.05 0.00 38 1006.0
20200603131612 68 15 8.0 12.0 0.00 0.05 0.00 37 1005.1
20200603131147 68 17 1.0 9.0 0.00 0.05 0.00 37 1006.1
20200603130648 68 280 4.0 8.0 0.00 0.05 0.00 36 1006.2
20200603130243 69 3 2.0 9.0 0.00 0.05 0.00 36 1006.2
20200603130147 69 3 2.0 9.0 0.00 0.05 0.00 36 1006.2
20200603130143 68 5 3.0 10.0 0.00 0.05 0.00 35 1005.3
20200603125221 69 5 5.0 10.0 0.00 0.05 0.00 36 1006.3
20200603125148 69 5 5.0 10.0 0.00 0.05 0.00 36 1006.3
20200603124147 69 1 2.0 11.0 0.00 0.05 0.00 37 1006.4
20200603123240 67 47 1.0 10.0 0.00 0.05 0.00 39 1005.6
20200603122612 67 11 5.0 10.0 0.00 0.05 0.00 40 1006.5
20200603121656 67 263 3.0 12.0 0.00 0.05 0.00 39 1005.8
20200603120657 68 340 1.0 12.0 0.00 0.05 0.00 40 1006.8
20200603120613 68 340 1.0 12.0 0.00 0.05 0.00 40 1006.8
20200603120239 67 10 4.0 12.0 0.00 0.05 0.00 40 1006.0
20200603115903 68 319 6.0 12.0 0.00 0.05 0.00 40 1006.8
20200603115004 68 331 4.0 9.0 0.00 0.05 0.00 38 1006.9
20200603114904 68 331 4.0 9.0 0.00 0.05 0.00 38 1006.9
20200603114654 68 340 3.0 9.0 0.00 0.05 0.00 38 1006.1
20200603114403 69 318 2.0 8.0 0.00 0.05 0.00 39 1006.9
20200603113904 69 311 2.0 8.0 0.00 0.05 0.00 40 1006.9
20200603112904 68 0 0.0 4.0 0.00 0.05 0.00 41 1007.0
20200603112404 67 0 0.0 4.0 0.00 0.05 0.00 41 1007.1
20200603111702 67 354 4.0 13.0 0.00 0.05 0.00 41 1007.2
20200603111614 67 15 5.0 13.0 0.00 0.05 0.00 41 1006.4
20200603110703 68 2 5.0 13.0 0.00 0.05 0.00 42 1007.3
20200603110112 66 289 1.0 11.0 0.00 0.05 0.00 41 1006.5
20200603105937 67 0 0.0 11.0 0.00 0.05 0.00 41 1007.4
20200603105437 67 356 6.0 11.0 0.00 0.05 0.00 40 1007.4
20200603104936 66 48 1.0 9.0 0.00 0.05 0.00 42 1007.5
20200603104437 66 15 1.0 9.0 0.00 0.05 0.00 42 1007.5
20200603104149 66 357 5.0 9.0 0.00 0.05 0.00 42 1007.5
20200603103937 66 357 5.0 9.0 0.00 0.05 0.00 42 1007.5
20200603103734 66 50 3.0 9.0 0.00 0.05 0.00 42 1007.5
20200603103437 66 50 3.0 9.0 0.00 0.05 0.00 42 1007.5
20200603103152 66 175 2.0 9.0 0.00 0.05 0.00 42 1006.7
20200603102937 66 89 4.0 9.0 0.00 0.05 0.00 42 1007.6
20200603102436 66 62 3.0 9.0 0.00 0.05 0.00 43 1007.6
20200603102026 66 0 0.0 7.0 0.00 0.05 0.00 44 1007.7
20200603101937 66 0 0.0 7.0 0.00 0.05 0.00 44 1007.7
20200603101437 66 284 1.0 7.0 0.00 0.05 0.00 44 1007.7
20200603100505 67 325 5.0 11.0 0.00 0.05 0.00 44 1007.8
20200603100158 66 60 0.0 5.0 0.00 0.05 0.00 44 1006.9
20200603095005 66 24 2.0 7.0 0.00 0.05 0.00 47 1008.0
20200603094045 65 56 2.0 10.0 0.00 0.05 0.00 47 1008.0
20200603094005 65 56 2.0 10.0 0.00 0.05 0.00 47 1008.0
20200603093538 65 28 4.0 10.0 0.00 0.05 0.00 47 1008.0
20200603093505 65 28 4.0 10.0 0.00 0.05 0.00 47 1008.0
20200603093105 65 360 2.0 9.0 0.00 0.05 0.00 49 1007.1
20200603093046 65 53 1.0 5.0 0.00 0.05 0.00 49 1008.0
20200603093004 65 53 1.0 5.0 0.00 0.05 0.00 49 1008.0
20200603092554 64 0 0.0 8.0 0.00 0.05 0.00 49 1008.1
20200603092505 64 0 0.0 8.0 0.00 0.05 0.00 49 1008.1
20200603091505 64 0 0.0 9.0 0.00 0.05 0.00 51 1008.2
20200603091044 64 33 3.0 8.0 0.00 0.05 0.00 49 1008.2
20200603091004 64 33 3.0 8.0 0.00 0.05 0.00 49 1008.2
20200603090611 64 43 1.0 5.0 0.00 0.05 0.00 51 1008.2
20200603090505 64 43 1.0 5.0 0.00 0.05 0.00 51 1008.2
20200603090006 64 39 1.0 5.0 0.00 0.05 0.00 51 1008.2
20200603085503 64 29 1.0 9.0 0.00 0.05 0.00 50 1008.2
20200603085058 65 7 2.0 13.0 0.00 0.05 0.00 51 1008.2
20200603085003 65 7 2.0 13.0 0.00 0.05 0.00 51 1008.2
20200603084504 64 352 4.0 13.0 0.00 0.05 0.00 51 1008.2
20200603084036 64 0 0.0 9.0 0.00 0.05 0.00 53 1008.1
20200603084005 64 0 0.0 9.0 0.00 0.05 0.00 53 1008.1
20200603083504 65 0 0.0 6.0 0.00 0.05 0.00 54 1008.2
20200603083007 64 340 2.0 6.0 0.00 0.05 0.00 52 1008.3
20200603082308 63 305 1.0 9.0 0.00 0.05 0.00 56 1008.3
20200603082210 63 305 1.0 9.0 0.00 0.05 0.00 56 1008.3
20200603082206 63 305 1.0 9.0 0.00 0.05 0.00 56 1008.3
20200603081705 64 324 3.0 6.0 0.00 0.05 0.00 56 1008.3
20200603081611 63 300 1.0 7.0 0.00 0.05 0.00 55 1008.4
20200603081207 63 300 1.0 7.0 0.00 0.05 0.00 55 1008.4
20200603080817 63 280 1.0 7.0 0.00 0.05 0.00 57 1008.5
20200603080706 63 280 1.0 7.0 0.00 0.05 0.00 57 1008.5
20200603080259 63 330 2.0 5.0 0.00 0.05 0.00 57 1008.4
20200603080205 63 330 2.0 5.0 0.00 0.05 0.00 57 1008.4
20200603080131 63 349 1.0 4.0 0.00 0.05 0.00 57 1007.6
20200603075800 63 0 0.0 2.0 0.00 0.05 0.00 59 1008.5
20200603075706 63 0 0.0 2.0 0.00 0.05 0.00 59 1008.5
20200603075248 62 0 0.0 6.0 0.00 0.05 0.00 58 1008.5
20200603075205 62 0 0.0 6.0 0.00 0.05 0.00 58 1008.5
20200603074706 62 33 2.0 6.0 0.00 0.05 0.00 59 1008.5
20200603073842 62 0 0.0 3.0 0.00 0.05 0.00 59 1008.6
20200603073705 62 0 0.0 3.0 0.00 0.05 0.00 59 1008.6
20200603073206 62 0 0.0 3.0 0.00 0.05 0.00 59 1008.6
20200603072237 61 0 0.0 5.0 0.00 0.05 0.00 61 1008.6
20200603072205 61 0 0.0 5.0 0.00 0.05 0.00 61 1008.6
20200603071703 60 346 1.0 5.0 0.00 0.05 0.00 62 1007.8
20200603071254 61 337 1.0 5.0 0.00 0.05 0.00 62 1008.7
20200603071205 61 337 1.0 5.0 0.00 0.05 0.00 62 1008.7
20200603070737 60 0 0.0 1.0 0.00 0.05 0.00 63 1008.6
20200603070705 60 0 0.0 1.0 0.00 0.05 0.00 63 1008.6
20200603070205 60 0 0.0 3.0 0.00 0.05 0.00 64 1008.7
20200603070125 60 5 0.0 3.0 0.00 0.05 0.00 64 1007.8
20200603065753 60 0 0.0 5.0 0.00 0.05 0.00 65 1008.8
20200603065706 60 0 0.0 5.0 0.00 0.05 0.00 65 1008.8
20200603065205 59 18 2.0 5.0 0.00 0.05 0.00 64 1008.8
20200603064736 60 21 1.0 3.0 0.00 0.05 0.00 65 1008.8
20200603064705 60 21 1.0 3.0 0.00 0.05 0.00 65 1008.8
20200603064606 59 11 0.0 3.0 0.00 0.05 0.00 66 1007.9
20200603063705 58 0 0.0 4.0 0.00 0.05 0.00 67 1008.8
20200603063205 58 9 2.0 4.0 0.00 0.05 0.00 68 1008.8
20200603063201 57 11 2.0 5.0 0.00 0.05 0.00 68 1007.9
20200603062707 57 20 2.0 4.0 0.00 0.05 0.00 68 1008.9
20200603061752 57 0 0.0 5.0 0.00 0.05 0.00 70 1008.9
20200603060847 55 37 1.0 7.0 0.00 0.05 0.00 71 1008.9
20200603060751 55 37 1.0 7.0 0.00 0.05 0.00 71 1008.9
20200603060251 55 15 3.0 6.0 0.00 0.05 0.00 70 1008.1
20200603055251 55 0 0.0 7.0 0.00 0.05 0.00 73 1008.9
20200603054751 54 35 2.0 7.0 0.00 0.05 0.00 72 1008.9
20200603054251 54 14 1.0 5.0 0.00 0.05 0.00 73 1008.9
20200603052113 52 27 3.0 9.0 0.00 0.05 0.00 74 1008.9
20200603051737 52 27 2.0 4.0 0.00 0.05 0.00 75 1007.9
20200603050218 51 355 4.0 9.0 0.00 0.05 0.00 76 1007.9
20200603050113 51 2 4.0 9.0 0.00 0.05 0.00 76 1008.8
20200603045115 51 13 2.0 5.0 0.00 0.05 0.00 78 1008.7
20200603043745 50 355 3.0 8.0 0.00 0.05 0.00 78 1008.7
20200603043654 50 355 3.0 8.0 0.00 0.05 0.00 78 1008.7
20200603043154 50 30 2.0 8.0 0.00 0.05 0.00 79 1008.7
20200603043137 49 38 2.0 8.0 0.00 0.05 0.00 79 1007.9
20200603042231 49 360 2.0 6.0 0.00 0.05 0.00 79 1008.8
20200603042155 49 360 2.0 6.0 0.00 0.05 0.00 79 1008.8
20200603041656 49 355 2.0 5.0 0.00 0.05 0.00 79 1008.0
20200603040654 49 5 2.0 6.0 0.00 0.05 0.00 80 1008.9
20200603040227 48 0 0.0 6.0 0.00 0.05 0.00 81 1008.9
20200603040155 48 0 0.0 6.0 0.00 0.05 0.00 81 1008.9
20200603040106 48 21 2.0 6.0 0.00 0.05 0.00 80 1008.0
20200603035654 48 355 1.0 5.0 0.00 0.05 0.00 81 1008.8
20200603035154 48 355 1.0 8.0 0.00 0.05 0.00 81 1008.9
20200603034724 48 7 2.0 8.0 0.00 0.05 0.00 81 1008.9
20200603034654 48 7 2.0 8.0 0.00 0.05 0.00 81 1008.9
20200603034620 47 342 2.0 5.0 0.00 0.05 0.00 81 1008.0
20200603034154 47 343 1.0 5.0 0.00 0.05 0.00 82 1008.9
20200603033743 47 347 2.0 5.0 0.00 0.05 0.00 82 1008.9
20200603033655 47 347 2.0 5.0 0.00 0.05 0.00 82 1008.9
20200603033154 47 355 1.0 4.0 0.00 0.05 0.00 82 1008.9
20200603032654 47 0 0.0 4.0 0.00 0.05 0.00 82 1008.9
20200603032056 47 355 3.0 5.0 0.00 0.05 0.00 82 1008.9
20200603032016 47 355 3.0 5.0 0.00 0.05 0.00 82 1008.9
20200603031616 46 355 2.0 5.0 0.00 0.05 0.00 82 1008.1
20200603031517 46 6 1.0 5.0 0.00 0.05 0.00 82 1009.0
20200603030941 46 18 1.0 5.0 0.00 0.05 0.00 82 1008.9
20200603030538 46 19 1.0 5.0 0.00 0.05 0.00 82 1008.9
20200603030440 46 19 1.0 5.0 0.00 0.05 0.00 82 1008.9
20200603030103 46 9 2.0 5.0 0.00 0.05 0.00 82 1008.1
20200603025940 46 5 2.0 5.0 0.00 0.05 0.00 82 1008.9
20200603025441 46 352 2.0 6.0 0.00 0.05 0.00 82 1009.0
20200603025024 46 349 2.0 6.0 0.00 0.05 0.00 81 1009.0
20200603024941 46 349 2.0 6.0 0.00 0.05 0.00 81 1009.0
20200603024441 46 355 1.0 5.0 0.00 0.05 0.00 81 1009.0
20200603023942 47 340 1.0 5.0 0.00 0.05 0.00 81 1009.1
20200603023441 47 0 0.0 5.0 0.00 0.05 0.00 80 1009.1
20200603023034 47 353 2.0 6.0 0.00 0.05 0.00 80 1009.0
20200603022941 47 353 2.0 6.0 0.00 0.05 0.00 80 1009.0
20200603022441 47 343 3.0 6.0 0.00 0.05 0.00 79 1009.0
20200603021941 47 338 1.0 4.0 0.00 0.05 0.00 79 1009.0
20200603021440 47 339 2.0 5.0 0.00 0.05 0.00 78 1009.1
20200603020544 47 350 3.0 6.0 0.00 0.05 0.00 77 1008.3
20200603020118 48 10 3.0 8.0 0.00 0.05 0.00 77 1009.1
20200603015518 48 5 1.0 8.0 0.00 0.05 0.00 77 1009.2
20200603015441 48 5 1.0 8.0 0.00 0.05 0.00 77 1009.2
20200602232650 52 7 4.0 9.0 0.00 0.05 0.00 67 1010.2
20200602232150 52 9 3.0 8.0 0.00 0.05 0.00 67 1010.3
20200602231650 52 32 3.0 10.0 0.00 0.05 0.00 67 1010.4
20200602231542 52 36 3.0 10.0 0.00 0.05 0.00 67 1009.5
20200602231150 52 17 5.0 10.0 0.00 0.05 0.00 66 1010.4
20200602230650 53 5 2.0 7.0 0.00 0.05 0.00 66 1010.4
20200602230226 53 9 3.0 7.0 0.00 0.05 0.00 66 1010.4
20200602230150 53 9 3.0 7.0 0.00 0.05 0.00 66 1010.4
20200602230038 52 5 2.0 6.0 0.00 0.05 0.00 66 1009.6
20200602225650 53 20 2.0 7.0 0.00 0.05 0.00 66 1010.5
20200602225227 53 360 2.0 8.0 0.00 0.05 0.00 66 1010.5
20200602225150 53 360 2.0 8.0 0.00 0.05 0.00 66 1010.5
20200602224742 53 8 4.0 8.0 0.00 0.05 0.00 65 1010.5
20200602224650 53 8 4.0 8.0 0.00 0.05 0.00 65 1010.5
20200602224522 53 23 2.0 5.0 0.00 0.05 0.00 66 1009.6
20200602224150 54 23 1.0 4.0 0.00 0.05 0.00 65 1010.5
20200602223552 54 24 2.0 10.0 0.00 0.05 0.00 65 1010.5
20200602223051 54 16 3.0 10.0 0.00 0.05 0.00 65 1010.5
20200602223030 54 20 4.0 10.0 0.00 0.05 0.00 65 1009.6
20200602222551 55 20 2.0 7.0 0.00 0.05 0.00 65 1010.5
20200602222051 55 14 1.0 8.0 0.00 0.05 0.00 65 1010.5
20200602221550 55 13 2.0 8.0 0.00 0.05 0.00 64 1010.5
20200602221051 55 12 3.0 8.0 0.00 0.05 0.00 63 1010.5
20200602220551 55 39 3.0 9.0 0.00 0.05 0.00 63 1010.5
20200602220051 56 38 3.0 10.0 0.00 0.05 0.05 63 1010.6
20200602215551 56 12 4.0 10.0 0.00 0.05 0.05 63 1010.6
20200602215050 56 24 3.0 8.0 0.00 0.05 0.05 63 1010.6
20200602214526 56 28 2.0 9.0 0.00 0.05 0.05 62 1009.7
20200602214141 56 37 2.0 9.0 0.00 0.05 0.05 62 1010.5
20200602213712 57 25 4.0 9.0 0.00 0.05 0.05 62 1010.5
20200602213637 57 25 4.0 9.0 0.00 0.05 0.05 62 1010.5
20200602213212 56 54 3.0 8.0 0.00 0.05 0.05 62 1009.7
20200602213137 57 48 3.0 8.0 0.00 0.05 0.05 62 1010.5
20200602212231 57 33 4.0 8.0 0.00 0.05 0.05 61 1010.6
20200602212136 57 33 4.0 8.0 0.00 0.05 0.05 61 1010.6
20200602211650 57 34 1.0 6.0 0.00 0.05 0.05 62 1009.7
20200602211637 57 26 2.0 7.0 0.00 0.05 0.05 62 1010.6
20200602211137 57 34 3.0 9.0 0.00 0.05 0.05 62 1010.5